Flag for U.S.A. Weather past 2 weeks in Lawrence, Kansas, U.S.A.

Now
77 °F

Clear.


Feels Like: 79 °F
Forecast: 74 / 96 °F
Wind: 7 mph from East

Location: Lawrence Municipal Airport

Current Time: Aug 23, 2014 at 1:04:46 AM

Latest Report: Aug 22, 2014 at 11:52 PM


Visibility: 10 mi

Pressure: 29.88 "Hg

Humidity: 82%

Dew point: 71 °F

Location of LawrenceLocation

Historic Weather in Lawrence — Graph

°F

Lawrence temperature yesterday

Maximum temperature yesterday: 99 °F (at 2:52 PM)
Minimum temperature yesterday: 77 °F (at 11:52 PM)
Average temperature yesterday: 87 °F

Past Weeks' High & Low Weather Summary

 TemperatureHumidityPressure
High100 °F (Aug 21, 3:52 PM)94% (Aug 11, 6:52 AM)30.16 "Hg (Aug 11, 6:52 AM)
Low53 °F (Aug 13, 7:00 AM)36% (Aug 13, 4:52 PM)29.70 "Hg (Aug 19, 4:52 AM)
Average77 °F71%29.93 "Hg
* Reported Aug 8 12:52 PM — Aug 22 11:52 PM, Lawrence, Weather by CustomWeather, © 2014

Note: Actual official high and low records may vary slightly from our data, if they occured in-between our weather recording intervals... More about our weather records

Advertising

Lawrence weather history for previous 24 hours

 ConditionsComfort  
Time TempWeatherWind HumidityBarometerVisibility
11:52 PM
Aug 22
77 °FClear.7 mph82%29.88 "Hg10 mi
10:52 PM80 °FClear.5 mph74%29.88 "Hg10 mi
9:52 PM80 °FClear.3 mph79%29.88 "Hg10 mi
8:52 PM82 °FSunny.5 mph74%29.85 "Hg10 mi
7:52 PM86 °FSunny.8 mph65%29.85 "Hg10 mi
6:52 PM91 °FSunny.9 mph52%29.85 "Hg10 mi
5:52 PM97 °FScattered clouds.3 mph45%29.86 "Hg10 mi
4:52 PM99 °FSunny.6 mph38%29.85 "Hg10 mi
3:52 PM95 °FSunny.15 mph46%29.86 "Hg10 mi
2:52 PM99 °FSunny.5 mph41%29.87 "Hg10 mi
1:52 PM97 °FSunny.9 mph46%29.88 "Hg10 mi
12:52 PM96 °FSunny.7 mph46%29.89 "Hg10 mi
11:52 AM92 °FSunny.6 mph52%29.90 "Hg9 mi
10:52 AM91 °FSunny.5 mph52%29.92 "Hg10 mi
9:52 AM88 °FScattered clouds.No wind59%29.92 "Hg9 mi
8:52 AM86 °FPassing clouds.5 mph61%29.92 "Hg9 mi
7:52 AM82 °FSunny.3 mph70%29.89 "Hg8 mi
6:52 AM80 °FClear.6 mph74%29.87 "Hg9 mi
5:52 AM79 °FClear.5 mph77%29.86 "Hg10 mi
4:52 AM79 °FClear.6 mph77%29.87 "Hg10 mi
3:52 AM80 °FClear.6 mph74%29.88 "Hg10 mi
2:52 AM84 °FClear.No wind65%29.87 "Hg10 mi
1:52 AM85 °FClear.10 mph63%29.86 "Hg10 mi
Weather by CustomWeather, © 2014

See weather overviewHow to use our weather pages